Location: Dover
(39.1580°N, 75.5250°W)
Time: 23:02:24
(UTC-05:00)

SeaSat 1 - Visible Passes

Search period start: 10 December 2017 00:00
Search period end: 20 December 2017 00:00
Orbit: 744 x 748 km, 108.0° (Epoch: 10 December)

Date Brightness Start Highest point End Pass type
(mag) Time Alt. Az. Time Alt. Az. Time Alt. Az.
10 Dec 4.3 05:11:53 10° N 05:13:13 17° N 05:13:13 17° N visible
11 Dec 4.5 04:29:19 10° NNE 04:30:26 17° NNE 04:30:26 17° NNE visible
11 Dec 4.4 06:09:45 10° NNW 06:10:14 10° NW 06:10:14 10° NW visible
12 Dec 5.2 03:47:28 10° NE 03:47:40 11° NE 03:47:40 11° NE visible
12 Dec 4.0 05:25:28 10° N 05:27:29 19° NNW 05:27:29 19° NNW visible
13 Dec 4.0 04:42:49 10° NNE 04:44:45 24° NNE 04:44:45 24° NNE visible
14 Dec 4.8 04:00:54 10° NE 04:02:04 17° NE 04:02:04 17° NE visible
14 Dec 3.7 05:39:03 10° N 05:41:53 22° NW 05:41:53 22° NW visible
15 Dec 3.4 04:56:20 10° NNE 04:59:15 34° N 04:59:15 34° N visible
16 Dec 4.1 04:14:20 10° NE 04:16:40 27° NE 04:16:40 27° NE visible
16 Dec 3.6 05:52:39 10° N 05:56:19 21° NW 05:56:30 21° NW visible
17 Dec 5.3 03:33:22 10° ENE 03:34:09 13° ENE 03:34:09 13° ENE visible
17 Dec 2.7 05:09:50 10° NNE 05:13:59 48° NNW 05:13:59 48° NNW visible
18 Dec 3.2 04:27:46 10° NNE 04:31:33 47° ENE 04:31:33 47° ENE visible
18 Dec 3.7 06:06:16 10° N 06:09:44 20° NW 06:11:24 17° WNW visible
19 Dec 4.8 03:46:39 10° ENE 03:49:15 20° E 03:49:15 20° E visible
19 Dec 2.6 05:23:22 10° NNE 05:28:05 47° WNW 05:29:06 41° W visible
